Location: Grisols
(45.0093°N, 3.1167°E)
Time: 22:10:44
(UTC+00:00)

NOSS 3-2 (C) - Pass Details

Date: 21 October 2019
Orbit: 818 x 1394 km, 63.4° (Epoch: 11 November)

Event Time Altitude Azimuth Distance (km) Brightness Sun altitude
Rises 19:47:22 0° 236° (SW) 3,416 6.8 -31.3°
Reaches altitude 10° 19:49:48 10° 241° (WSW) 2,529 6.1 -31.7°
Maximum altitude 19:55:28 50° 317° (NW) 1,196 4.1 -32.6°
Enters shadow 19:57:04 41° 358° (N) 1,380 4.3 -32.9°
